STARLINK-1246, 45235

Orbit data source: Space-Track

STARLINK-1246, 45235 is a payload satellite owned by SpaceX/Seattle (US) in LEO that was launched on Mon, 17 Feb 2020 UTC via an FALCON 9 launch vehicle from the Air Force Eastern Test Range (AFETR). Payload-class satellites include a variety of spacecraft equipped with specific instruments for various scientific and technological missions. These include communications satellites like Starlink; space stations such as the ISS; scientific satellites like the Hubble; Earth observation satellites from companies like Planet Labs, Umbra, and HawkEye 360; GPS; miniature CubeSats for education and research; and military/defense satellites.

Loading next visibility...
Identifier
45235, 2020-012BK
Orbit
LEO
Country
Flag of USUS
Related business
Manufacturer
SpaceX/Seattle
Mission
Partially operational Commercial Communications
Bus & Motor
STARLINK, Unknown motor
Mass
260 kg wet, ~248 kg dry
Launch date (UTC)
2020-02-17 (6 years ago)
Launch vehicle
FALCON 9
Launch site
Air Force Eastern Test Range (AFETR)
Object type
Payload
Rocket body
Debris
Shape & HBR
Box + 1 Pan, 10.1 m
Radar Cross Section
13.562 m², Large (>1 m²)

Expand to show TLE details & history
Last TLE update: 16 hours ago

TLE from 16 hours ago
0 STARLINK-1246
1 45235U 20012BK  26124.32165640  .00033835  00000-0  10746-2 0  9998
2 45235  53.1551 140.6380 0003031  65.4509 294.6808 15.32363510343498
Epoch: 2026-05-04T07:43Z
TLE epoch observation values (Epoch: 2026-05-04T07:43:11.112Z)
Latitude
-0.00007°
Longitude
162.62912°
Altitude
468.797 km
Speed
7.634 km/s
True Right ascension
09h 22m 33s
True Declination
0° 00' 00"
Sunlit
Object was in daylight at epoch
Visualization orbit readout
Latitude
Unknown
Longitude
Unknown
Altitude
Unknown
Speed
Unknown
Apparent Right ascension
Unknown
Apparent Declination
Unknown
Sunlit
N/A
Visualization observer readout
Local Sidereal Time
07:39:52
Azimuth
Unknown
Elevation
Unknown
Doppler factor
Unknown
Orbital elements
Apogee altitude
471.096 km
Perigee altitude
466.945 km
Semi-major axis
6,847.157 km
Eccentricity
0.0003
Inclination
53.1551°
RAAN
140.638°
Arg. of periapsis
65.4509°
True anomaly
294.64924°
Mean anomaly
294.6808°
Eccentric anomaly
294.66502°
Mean motion
3.8307 °/min
Orbital period
93.98 mins
BSTAR
0.0010746
Loading maneuver chart data...
Computing Atmospheric mass density...
Loading historical data...
Loading historical data...
Loading historical data...
Loading historical data...
Loading historical data...
Loading historical data...
Loading historical data...

Documentation

Showing up to 5 results
|